Weather History for Falfurrias, TX

Change the Weather History Date:

Wednesday, March 27, 2013

  Actual Average (KNQI) Record (KNQI)
Temperature  
Mean Temperature 64 °F -  
Max Temperature 74 °F 76 °F 97 °F (2009)
Min Temperature 55 °F 58 °F 53 °F (2013)
Degree Days  
Heating Degree Days 1    
Growing Degree Days 14 (Base 50)    
Moisture  
Dew Point 49 °F    
Average Humidity 53    
Maximum Humidity 65    
Minimum Humidity 43    
Precipitation  
Precipitation 0.00 in - - ()
Sea Level Pressure  
Sea Level Pressure 30.24 in    
Wind  
Wind Speed 7 mph (ESE)    
Max Wind Speed 16 mph    
Max Gust Speed 22 mph    
Visibility 10 miles    
Events      
Averages and records for this station are not official NWS values.
T = Trace of Precipitation, MM = Missing Value Source: NWS Daily Summary

Daily Weather History Graph

Daily Weather History Graph

Search for Another Location

Airport:

Trip Planner

Search our weather history database for the weather conditions in past years. The results will help you decide how hot, cold, wet, or windy it might be!

Date:

Astronomy

Mar. 27, 2013 Rise Set
Actual Time 7:28 AM CDT 7:47 PM CDT
Civil Twilight 7:04 AM CDT 8:10 PM CDT
Nautical Twilight 6:37 AM CDT 8:38 PM CDT
Astronomical Twilight 6:10 AM CDT 9:05 PM CDT
Moon 8:24 PM CDT (3/27) 7:24 AM CDT (3/27)
Length of Visible Light 13h 05m
Length of Day
12h 19m
Full, 100% of the Moon is Illuminated
Mar 27
Full
Apr 2
Last Quarter
Apr 10
New
Apr 18
First Quarter
Apr 25
Full

Hourly Weather History & Observations

Time (CDT) Temp. Dew Point Humidity Pressure Visibility Wind Dir Wind Speed Gust Speed Precip Events Conditions
12:15 AM 59.2 °F 40.1 °F 49% 30.34 in 10.0 mi ESE 4.6 mph - N/A   Overcast
12:35 AM 58.1 °F 40.1 °F 51% 30.33 in 10.0 mi ESE 4.6 mph - N/A   Mostly Cloudy
12:55 AM 57.2 °F 40.1 °F 53% 30.33 in 10.0 mi ESE 3.5 mph - N/A   Scattered Clouds
1:15 AM 55.9 °F 39.9 °F 55% 30.32 in 10.0 mi ESE 3.5 mph - N/A   Scattered Clouds
1:35 AM 55.9 °F 40.3 °F 56% 30.31 in 10.0 mi ESE 3.5 mph - N/A   Mostly Cloudy
1:55 AM 56.8 °F 41.0 °F 55% 30.31 in 10.0 mi SE 6.9 mph - N/A   Overcast
2:15 AM 59.2 °F 42.8 °F 55% 30.30 in 10.0 mi ESE 5.8 mph - N/A   Overcast
2:55 AM 59.4 °F 43.0 °F 55% 30.29 in 10.0 mi SE 4.6 mph - N/A   Overcast
3:15 AM 59.5 °F 43.0 °F 54% 30.28 in 10.0 mi SE 4.6 mph - N/A   Overcast
3:35 AM 59.5 °F 43.2 °F 55% 30.27 in 10.0 mi ESE 3.5 mph - N/A   Overcast
3:55 AM 59.9 °F 43.5 °F 55% 30.26 in 10.0 mi East 3.5 mph - N/A   Overcast
4:15 AM 59.0 °F 43.0 °F 55% 30.26 in 10.0 mi East 4.6 mph - N/A   Overcast
4:35 AM 59.0 °F 43.2 °F 56% 30.26 in 10.0 mi East 3.5 mph - N/A   Overcast
4:55 AM 59.0 °F 43.7 °F 57% 30.25 in 10.0 mi East 3.5 mph - N/A   Overcast
5:15 AM 59.2 °F 44.4 °F 58% 30.25 in 10.0 mi East 4.6 mph - N/A   Overcast
5:35 AM 59.0 °F 44.2 °F 58% 30.25 in 10.0 mi ENE 3.5 mph - N/A   Overcast
5:55 AM 59.4 °F 44.1 °F 57% 30.26 in 10.0 mi East 3.5 mph - N/A   Overcast
6:15 AM 59.9 °F 44.2 °F 56% 30.26 in 10.0 mi East 3.5 mph - N/A   Overcast
6:35 AM 59.5 °F 43.9 °F 56% 30.27 in 10.0 mi ENE 3.5 mph - N/A   Overcast
6:55 AM 59.9 °F 44.1 °F 56% 30.27 in 10.0 mi East 3.5 mph - N/A   Overcast
7:15 AM 59.9 °F 44.1 °F 56% 30.27 in 10.0 mi East 3.5 mph - N/A   Overcast
7:35 AM 59.9 °F 44.2 °F 56% 30.27 in 10.0 mi East 3.5 mph - N/A   Overcast
7:55 AM 60.3 °F 44.8 °F 57% 30.27 in 10.0 mi East 3.5 mph - N/A   Overcast
8:15 AM 61.0 °F 45.3 °F 56% 30.27 in 10.0 mi East 4.6 mph - N/A   Overcast
8:55 AM 62.6 °F 46.0 °F 55% 30.29 in 10.0 mi ESE 3.5 mph - N/A   Overcast
9:15 AM 63.9 °F 46.4 °F 53% 30.29 in 10.0 mi ESE 4.6 mph - N/A   Overcast
9:35 AM 65.1 °F 46.6 °F 51% 30.29 in 10.0 mi ESE 6.9 mph - N/A   Overcast
9:55 AM 66.2 °F 47.1 °F 50% 30.30 in 10.0 mi SE 8.1 mph - N/A   Overcast
10:15 AM 66.7 °F 47.8 °F 51% 30.30 in 10.0 mi ESE 9.2 mph - N/A   Overcast
10:35 AM 67.6 °F 48.4 °F 50% 30.31 in 10.0 mi SE 12.7 mph 18.4 mph N/A   Overcast
10:55 AM 68.7 °F 48.6 °F 49% 30.30 in 10.0 mi SE 13.8 mph 19.6 mph N/A   Overcast
11:15 AM 69.3 °F 49.1 °F 49% 30.30 in 10.0 mi SE 12.7 mph 18.4 mph N/A   Overcast
11:35 AM 70.2 °F 48.7 °F 46% 30.29 in 10.0 mi ESE 10.4 mph 19.6 mph N/A   Overcast
11:55 AM 70.7 °F 48.6 °F 45% 30.29 in 7.0 mi SE 11.5 mph 18.4 mph N/A   Overcast
12:15 PM 71.1 °F 49.3 °F 46% 30.29 in 10.0 mi SSE 16.1 mph 19.6 mph N/A   Overcast
12:35 PM 71.6 °F 49.6 °F 46% 30.28 in 10.0 mi ESE 12.7 mph 19.6 mph N/A   Overcast
12:55 PM 72.0 °F 49.8 °F 46% 30.27 in 7.0 mi ESE 12.7 mph - N/A   Overcast
1:15 PM 72.3 °F 49.8 °F 45% 30.27 in 10.0 mi ESE 13.8 mph 18.4 mph N/A   Overcast
1:35 PM 72.0 °F 49.6 °F 45% 30.26 in 10.0 mi SSE 11.5 mph 19.6 mph N/A   Overcast
1:55 PM 73.4 °F 50.0 °F 44% 30.24 in 10.0 mi SE 11.5 mph 18.4 mph N/A   Overcast
2:15 PM 72.9 °F 49.8 °F 44% 30.24 in 7.0 mi SSE 12.7 mph 21.9 mph N/A   Overcast
2:35 PM 73.2 °F 50.0 °F 44% 30.23 in 10.0 mi ESE 11.5 mph - N/A   Overcast
2:55 PM 73.4 °F 50.0 °F 44% 30.22 in 10.0 mi SE 9.2 mph - N/A   Overcast
3:15 PM 73.6 °F 49.8 °F 43% 30.20 in 10.0 mi SE 11.5 mph 20.7 mph N/A   Overcast
3:35 PM 73.9 °F 50.2 °F 43% 30.19 in 10.0 mi SE 13.8 mph 18.4 mph N/A   Overcast
3:55 PM 73.9 °F 50.5 °F 44% 30.19 in 10.0 mi SE 13.8 mph 19.6 mph N/A   Overcast
4:15 PM 73.4 °F 51.1 °F 45% 30.18 in 10.0 mi ESE 12.7 mph 20.7 mph N/A   Overcast
4:35 PM 73.6 °F 50.9 °F 45% 30.17 in 10.0 mi ESE 15.0 mph - N/A   Overcast
4:55 PM 73.4 °F 51.8 °F 47% 30.17 in 10.0 mi ESE 11.5 mph 20.7 mph N/A   Overcast
5:15 PM 72.7 °F 52.2 °F 48% 30.17 in 7.0 mi SE 13.8 mph 18.4 mph N/A   Overcast
5:35 PM 72.0 °F 52.7 °F 51% 30.17 in 10.0 mi ESE 10.4 mph 18.4 mph N/A   Overcast
5:55 PM 72.1 °F 52.9 °F 51% 30.17 in 10.0 mi ESE 12.7 mph 18.4 mph N/A   Overcast
6:15 PM 71.8 °F 52.9 °F 51% 30.17 in 10.0 mi SE 13.8 mph 21.9 mph N/A   Overcast
6:35 PM 71.6 °F 53.2 °F 52% 30.17 in 10.0 mi SE 13.8 mph 20.7 mph N/A   Overcast
6:55 PM 71.6 °F 53.6 °F 53% 30.17 in 10.0 mi SE 12.7 mph - N/A   Overcast
7:15 PM 71.1 °F 53.6 °F 54% 30.17 in 10.0 mi SE 12.7 mph - N/A   Overcast
7:35 PM 70.7 °F 54.0 °F 55% 30.17 in 10.0 mi SE 12.7 mph 17.3 mph N/A   Overcast
7:55 PM 70.3 °F 54.5 °F 57% 30.17 in 10.0 mi ESE 13.8 mph - N/A   Overcast
8:15 PM 70.2 °F 54.5 °F 57% 30.17 in 7.0 mi ESE 6.9 mph 10.4 mph N/A   Overcast
8:35 PM 70.0 °F 54.7 °F 58% 30.18 in 10.0 mi SE 11.5 mph - N/A   Overcast
8:55 PM 70.0 °F 54.9 °F 59% 30.19 in 7.0 mi SE 10.4 mph - N/A   Overcast
9:15 PM 69.8 °F 55.4 °F 60% 30.19 in 10.0 mi SE 10.4 mph 17.3 mph N/A   Overcast
9:35 PM 69.6 °F 55.6 °F 61% 30.19 in 10.0 mi SE 10.4 mph - N/A   Overcast
9:55 PM 69.4 °F 55.9 °F 62% 30.19 in 10.0 mi ESE 9.2 mph 17.3 mph N/A   Overcast
10:15 PM 69.3 °F 55.9 °F 62% 30.19 in 10.0 mi SE 9.2 mph - N/A   Overcast
10:35 PM 69.3 °F 56.3 °F 63% 30.19 in 10.0 mi SE 10.4 mph 16.1 mph N/A   Overcast
10:55 PM 69.3 °F 56.3 °F 63% 30.19 in 10.0 mi SE 9.2 mph - N/A   Overcast
11:15 PM 69.1 °F 56.5 °F 64% 30.20 in 10.0 mi SE 11.5 mph - N/A   Overcast
11:35 PM 69.1 °F 56.5 °F 64% 30.20 in 10.0 mi SE 9.2 mph - N/A   Overcast
11:55 PM 69.1 °F 56.8 °F 65% 30.20 in 10.0 mi SE 8.1 mph - N/A   Overcast